Location: Kapla
(46.2483°N, 15.0094°E)
Time: 19:08:56
(UTC+00:00)

Meteor 1-5 Rocket - Pass Details

Date: 03 March 2021
Orbit: 789 x 915 km, 81.2° (Epoch: 20 April)

Event Time Altitude Azimuth Distance (km) Brightness Sun altitude
Rises 18:30:24 0° 189° (S) 3,284 7.3 -18.2°
Reaches altitude 10° 18:32:44 10° 189° (S) 2,368 6.5 -18.6°
Maximum altitude 18:38:05 90° 85° (E) 821 4.1 -19.6°
Drops below altitude 10° 18:43:38 10° 11° (N) 2,453 6.6 -20.5°
Sets 18:46:05 0° 12° (NNE) 3,411 7.4 -20.9°
